| time (UTC) | temp F | wind direction | speed knots | gust knots | rain 1hr in | rain 24hr in | rain mn in | humidity % | barometer mb |
| 20260504040033 | 58 | 248 | 0.9 | 3.5 | 0.00 | 0.00 | 0.00 | 41 | 1003.7 |
| 20260504035515 | 58 | 248 | 0.9 | 3.5 | 0.00 | 0.00 | 0.00 | 41 | 1003.8 |
| 20260504035013 | 58 | 248 | 1.7 | 5.2 | 0.00 | 0.00 | 0.00 | 40 | 1003.8 |
| 20260504034542 | 59 | 257 | 1.7 | 5.2 | 0.00 | 0.00 | 0.00 | 40 | 1003.9 |
| 20260504034013 | 59 | 264 | 1.7 | 3.5 | 0.00 | 0.00 | 0.00 | 39 | 1003.9 |
| 20260504033521 | 59 | 263 | 0.9 | 3.5 | 0.00 | 0.00 | 0.00 | 39 | 1004.0 |
| 20260504033033 | 59 | 264 | 0.9 | 3.5 | 0.00 | 0.00 | 0.00 | 38 | 1004.0 |
| 20260504032513 | 60 | 264 | 1.7 | 3.5 | 0.00 | 0.00 | 0.00 | 38 | 1004.0 |
| 20260504032017 | 60 | 264 | 0.9 | 3.5 | 0.00 | 0.00 | 0.00 | 38 | 1004.2 |
| 20260504031535 | 60 | 267 | 0.9 | 3.5 | 0.00 | 0.00 | 0.00 | 37 | 1004.2 |
| 20260504031015 | 60 | 267 | 1.7 | 3.5 | 0.00 | 0.00 | 0.00 | 37 | 1004.2 |
| 20260504030514 | 60 | 267 | 1.7 | 3.5 | 0.00 | 0.00 | 0.00 | 38 | 1004.3 |
| 20260504030039 | 60 | 268 | 1.7 | 3.5 | 0.00 | 0.00 | 0.00 | 38 | 1004.4 |
| 20260504025516 | 60 | 268 | 1.7 | 3.5 | 0.00 | 0.00 | 0.00 | 38 | 1004.3 |
| 20260504025014 | 61 | 269 | 0.9 | 2.6 | 0.00 | 0.00 | 0.00 | 38 | 1004.3 |
| 20260504024530 | 61 | 269 | 0.9 | 2.6 | 0.00 | 0.00 | 0.00 | 37 | 1004.3 |
| 20260504024017 | 61 | 268 | 0.9 | 2.6 | 0.00 | 0.00 | 0.00 | 37 | 1004.3 |
| 20260504023514 | 61 | 268 | 0.9 | 2.6 | 0.00 | 0.00 | 0.00 | 36 | 1004.2 |
| 20260504023034 | 62 | 268 | 1.7 | 5.2 | 0.00 | 0.00 | 0.00 | 36 | 1004.3 |
| 20260504022516 | 62 | 268 | 1.7 | 5.2 | 0.00 | 0.00 | 0.00 | 36 | 1004.4 |
| 20260504022014 | 62 | 267 | 2.6 | 5.2 | 0.00 | 0.00 | 0.00 | 36 | 1004.3 |
| 20260504021534 | 62 | 267 | 1.7 | 5.2 | 0.00 | 0.00 | 0.00 | 35 | 1004.4 |
| 20260504021013 | 62 | 267 | 0.9 | 5.2 | 0.00 | 0.00 | 0.00 | 36 | 1004.4 |
| 20260504020514 | 62 | 266 | 1.7 | 5.2 | 0.00 | 0.00 | 0.00 | 35 | 1004.4 |
| 20260504020038 | 62 | 269 | 1.7 | 3.5 | 0.00 | 0.00 | 0.00 | 35 | 1004.4 |
| 20260504015514 | 62 | 269 | 1.7 | 6.1 | 0.00 | 0.00 | 0.00 | 35 | 1004.4 |
| 20260504015017 | 62 | 269 | 1.7 | 6.1 | 0.00 | 0.00 | 0.00 | 35 | 1004.5 |
| 20260504014534 | 62 | 274 | 2.6 | 6.1 | 0.00 | 0.00 | 0.00 | 35 | 1004.5 |
| 20260504014015 | 62 | 296 | 2.6 | 6.1 | 0.00 | 0.00 | 0.00 | 36 | 1004.5 |
| 20260504013514 | 62 | 293 | 2.6 | 6.1 | 0.00 | 0.00 | 0.00 | 36 | 1004.4 |
| 20260504013032 | 63 | 296 | 2.6 | 6.1 | 0.00 | 0.00 | 0.00 | 35 | 1004.4 |
| 20260504012515 | 63 | 296 | 2.6 | 6.1 | 0.00 | 0.00 | 0.00 | 35 | 1004.4 |
| 20260504012013 | 63 | 292 | 2.6 | 8.7 | 0.00 | 0.00 | 0.00 | 36 | 1004.4 |
| 20260504011533 | 63 | 295 | 3.5 | 8.7 | 0.00 | 0.00 | 0.00 | 36 | 1004.4 |
| 20260504011013 | 63 | 297 | 5.2 | 8.7 | 0.00 | 0.00 | 0.00 | 35 | 1004.4 |
| 20260504010516 | 64 | 294 | 4.3 | 8.7 | 0.00 | 0.00 | 0.00 | 37 | 1004.4 |
| 20260504010040 | 64 | 306 | 4.3 | 8.7 | 0.00 | 0.00 | 0.00 | 36 | 1004.3 |
| 20260504005514 | 64 | 295 | 4.3 | 8.7 | 0.00 | 0.00 | 0.00 | 36 | 1004.4 |
| 20260504005013 | 64 | 302 | 3.5 | 8.7 | 0.00 | 0.00 | 0.00 | 37 | 1004.4 |
| 20260504004534 | 64 | 288 | 4.3 | 8.7 | 0.00 | 0.00 | 0.00 | 37 | 1004.4 |
| 20260504004015 | 65 | 285 | 5.2 | 10.4 | 0.00 | 0.00 | 0.00 | 35 | 1004.3 |
| 20260504003516 | 65 | 304 | 5.2 | 10.4 | 0.00 | 0.00 | 0.00 | 35 | 1004.2 |
| 20260504003031 | 66 | 291 | 6.1 | 10.4 | 0.00 | 0.00 | 0.00 | 35 | 1004.1 |
| 20260504002514 | 66 | 291 | 5.2 | 10.4 | 0.00 | 0.00 | 0.00 | 35 | 1004.1 |
| 20260504002015 | 66 | 284 | 5.2 | 10.4 | 0.00 | 0.00 | 0.00 | 34 | 1004.2 |
| 20260504001535 | 66 | 279 | 6.1 | 10.4 | 0.00 | 0.00 | 0.00 | 34 | 1004.2 |
| 20260504001015 | 67 | 286 | 3.5 | 10.4 | 0.00 | 0.00 | 0.00 | 34 | 1004.3 |
| 20260504000515 | 67 | 332 | 5.2 | 10.4 | 0.00 | 0.00 | 0.00 | 33 | 1004.2 |
| 20260504000034 | 67 | 279 | 5.2 | 10.4 | 0.00 | 0.00 | 0.00 | 32 | 1004.3 |
| 20260503235514 | 67 | 300 | 3.5 | 11.3 | 0.00 | 0.00 | 0.00 | 32 | 1004.3 |
| 20260503235014 | 67 | 267 | 6.1 | 11.3 | 0.00 | 0.00 | 0.00 | 31 | 1004.3 |
| 20260503234535 | 67 | 319 | 5.2 | 12.2 | 0.00 | 0.00 | 0.00 | 31 | 1004.3 |
| 20260503234014 | 67 | 336 | 6.1 | 13.9 | 0.00 | 0.00 | 0.00 | 30 | 1004.3 |
| 20260503233514 | 67 | 281 | 6.1 | 13.9 | 0.00 | 0.00 | 0.00 | 30 | 1004.3 |
| 20260503233035 | 67 | 313 | 7.0 | 13.9 | 0.00 | 0.00 | 0.00 | 29 | 1004.2 |
| 20260503232515 | 68 | 301 | 6.1 | 13.9 | 0.00 | 0.00 | 0.00 | 30 | 1004.3 |
| 20260503232014 | 68 | 304 | 7.8 | 14.8 | 0.00 | 0.00 | 0.00 | 29 | 1004.3 |
| 20260503231545 | 68 | 286 | 5.2 | 14.8 | 0.00 | 0.00 | 0.00 | 30 | 1004.4 |
| 20260503231014 | 68 | 290 | 7.0 | 14.8 | 0.00 | 0.00 | 0.00 | 29 | 1004.4 |
| 20260503230514 | 68 | 294 | 6.1 | 13.0 | 0.00 | 0.00 | 0.00 | 32 | 1004.4 |
| 20260503230034 | 68 | 317 | 6.1 | 13.0 | 0.00 | 0.00 | 0.00 | 30 | 1004.4 |
| 20260503225514 | 68 | 267 | 6.1 | 13.0 | 0.00 | 0.00 | 0.00 | 31 | 1004.5 |
| 20260503225015 | 68 | 317 | 6.1 | 13.0 | 0.00 | 0.00 | 0.00 | 30 | 1004.5 |
| 20260503224534 | 68 | 280 | 7.8 | 13.0 | 0.00 | 0.00 | 0.00 | 31 | 1004.6 |
| 20260503224014 | 68 | 281 | 4.3 | 13.0 | 0.00 | 0.00 | 0.00 | 32 | 1004.7 |
| 20260503223514 | 68 | 298 | 7.8 | 13.0 | 0.00 | 0.00 | 0.00 | 33 | 1004.5 |
| 20260503223035 | 68 | 254 | 7.8 | 13.0 | 0.00 | 0.00 | 0.00 | 33 | 1004.5 |
| 20260503222514 | 69 | 288 | 7.0 | 13.9 | 0.00 | 0.00 | 0.00 | 33 | 1004.6 |
| 20260503222016 | 68 | 325 | 7.0 | 13.9 | 0.00 | 0.00 | 0.00 | 35 | 1004.4 |
| 20260503221535 | 69 | 295 | 7.0 | 12.2 | 0.00 | 0.00 | 0.00 | 33 | 1004.4 |
| 20260503221015 | 69 | 307 | 4.3 | 13.0 | 0.00 | 0.00 | 0.00 | 36 | 1004.1 |
| 20260503220514 | 69 | 297 | 6.1 | 13.0 | 0.00 | 0.00 | 0.00 | 34 | 1004.4 |
| 20260503220038 | 69 | 321 | 5.2 | 12.2 | 0.00 | 0.00 | 0.00 | 34 | 1004.4 |
| 20260503215515 | 69 | 319 | 4.3 | 10.4 | 0.00 | 0.00 | 0.00 | 36 | 1004.4 |
| 20260503215013 | 69 | 287 | 5.2 | 10.4 | 0.00 | 0.00 | 0.00 | 35 | 1004.5 |
| 20260503214542 | 69 | 321 | 5.2 | 13.9 | 0.00 | 0.00 | 0.00 | 39 | 1004.4 |
| 20260503214014 | 68 | 303 | 6.1 | 13.9 | 0.00 | 0.00 | 0.00 | 42 | 1004.4 |
| 20260503213514 | 68 | 352 | 6.1 | 13.9 | 0.00 | 0.00 | 0.00 | 38 | 1004.4 |
| 20260503213050 | 68 | 314 | 7.8 | 13.0 | 0.00 | 0.00 | 0.00 | 36 | 1004.4 |
| 20260503212512 | 68 | 312 | 5.2 | 13.0 | 0.00 | 0.00 | 0.00 | 35 | 1004.5 |
| 20260503212012 | 68 | 339 | 4.3 | 13.0 | 0.00 | 0.00 | 0.00 | 35 | 1004.7 |
| 20260503211549 | 68 | 305 | 7.0 | 13.0 | 0.00 | 0.00 | 0.00 | 36 | 1004.6 |
| 20260503211016 | 68 | 330 | 5.2 | 16.5 | 0.00 | 0.00 | 0.00 | 34 | 1004.5 |
| 20260503210515 | 68 | 317 | 7.0 | 16.5 | 0.00 | 0.00 | 0.00 | 36 | 1004.7 |
| 20260503210035 | 68 | 288 | 6.1 | 15.6 | 0.00 | 0.00 | 0.00 | 38 | 1004.9 |
| 20260503205517 | 68 | 279 | 9.6 | 16.5 | 0.00 | 0.00 | 0.00 | 34 | 1004.6 |
| 20260503205017 | 68 | 311 | 7.8 | 16.5 | 0.00 | 0.00 | 0.00 | 33 | 1004.8 |
| 20260503204550 | 68 | 311 | 9.6 | 16.5 | 0.00 | 0.00 | 0.00 | 37 | 1004.8 |
| 20260503204016 | 69 | 290 | 6.1 | 13.9 | 0.00 | 0.00 | 0.00 | 38 | 1004.7 |
| 20260503203514 | 68 | 335 | 7.0 | 15.6 | 0.00 | 0.00 | 0.00 | 40 | 1004.8 |
| 20260503203035 | 69 | 281 | 9.6 | 15.6 | 0.00 | 0.00 | 0.00 | 42 | 1004.9 |
| 20260503202514 | 68 | 259 | 7.8 | 16.5 | 0.00 | 0.00 | 0.00 | 42 | 1004.8 |
| 20260503202014 | 68 | 310 | 7.8 | 16.5 | 0.00 | 0.00 | 0.00 | 41 | 1004.9 |
| 20260503201532 | 68 | 306 | 6.1 | 16.5 | 0.00 | 0.00 | 0.00 | 44 | 1004.9 |
| 20260503201013 | 68 | 248 | 8.7 | 16.5 | 0.00 | 0.00 | 0.00 | 41 | 1005.1 |
| 20260503200517 | 68 | 310 | 7.8 | 16.5 | 0.00 | 0.00 | 0.00 | 40 | 1005.1 |
| 20260503200034 | 68 | 297 | 5.2 | 17.4 | 0.00 | 0.00 | 0.00 | 41 | 1005.0 |
| 20260503195514 | 68 | 290 | 7.0 | 17.4 | 0.00 | 0.00 | 0.00 | 40 | 1005.1 |
| 20260503195013 | 68 | 316 | 7.8 | 19.1 | 0.00 | 0.00 | 0.00 | 41 | 1005.0 |
| 20260503194534 | 68 | 329 | 9.6 | 19.1 | 0.00 | 0.00 | 0.00 | 39 | 1005.0 |
| 20260503194014 | 68 | 310 | 5.2 | 15.6 | 0.00 | 0.00 | 0.00 | 45 | 1005.1 |
| 20260503193514 | 68 | 290 | 7.8 | 15.6 | 0.00 | 0.00 | 0.00 | 43 | 1005.1 |
| 20260503193034 | 68 | 266 | 7.0 | 17.4 | 0.00 | 0.00 | 0.00 | 43 | 1005.2 |
| 20260503192529 | 68 | 232 | 8.7 | 17.4 | 0.00 | 0.00 | 0.00 | 41 | 1005.2 |
| 20260503192014 | 68 | 304 | 5.2 | 14.8 | 0.00 | 0.00 | 0.00 | 42 | 1005.1 |
| 20260503191533 | 68 | 288 | 6.1 | 14.8 | 0.00 | 0.00 | 0.00 | 43 | 1005.2 |
| 20260503191018 | 67 | 338 | 7.0 | 14.8 | 0.00 | 0.00 | 0.00 | 40 | 1005.1 |
| 20260503190515 | 67 | 305 | 7.8 | 14.8 | 0.00 | 0.00 | 0.00 | 40 | 1005.2 |
| 20260503190033 | 68 | 277 | 4.3 | 13.0 | 0.00 | 0.00 | 0.00 | 45 | 1005.1 |
| 20260503185518 | 67 | 347 | 5.2 | 13.0 | 0.00 | 0.00 | 0.00 | 43 | 1005.1 |
| 20260503185014 | 68 | 284 | 4.3 | 11.3 | 0.00 | 0.00 | 0.00 | 42 | 1005.2 |
| 20260503184536 | 68 | 296 | 4.3 | 12.2 | 0.00 | 0.00 | 0.00 | 44 | 1005.2 |
| 20260503184018 | 67 | 272 | 6.1 | 14.8 | 0.00 | 0.00 | 0.00 | 46 | 1005.2 |
| 20260503183517 | 67 | 314 | 5.2 | 14.8 | 0.00 | 0.00 | 0.00 | 45 | 1005.3 |
| 20260503183041 | 67 | 339 | 3.5 | 15.6 | 0.00 | 0.00 | 0.00 | 43 | 1005.2 |
| 20260503182515 | 66 | 355 | 7.0 | 15.6 | 0.00 | 0.00 | 0.00 | 47 | 1005.3 |
| 20260503182014 | 66 | 312 | 5.2 | 14.8 | 0.00 | 0.00 | 0.00 | 44 | 1005.2 |
| 20260503181534 | 66 | 17 | 8.7 | 14.8 | 0.00 | 0.00 | 0.00 | 44 | 1005.4 |
| 20260503181015 | 66 | 321 | 4.3 | 12.2 | 0.00 | 0.00 | 0.00 | 46 | 1005.4 |
| 20260503180514 | 66 | 292 | 4.3 | 12.2 | 0.00 | 0.00 | 0.00 | 45 | 1005.5 |
| 20260503180035 | 66 | 323 | 5.2 | 12.2 | 0.00 | 0.00 | 0.00 | 48 | 1005.6 |
| 20260503175515 | 65 | 231 | 4.3 | 13.9 | 0.00 | 0.00 | 0.00 | 49 | 1005.5 |
| 20260503175015 | 65 | 315 | 4.3 | 13.9 | 0.00 | 0.00 | 0.00 | 48 | 1005.5 |
| 20260503174544 | 65 | 321 | 4.3 | 12.2 | 0.00 | 0.00 | 0.00 | 48 | 1005.5 |
| 20260503174014 | 65 | 345 | 7.8 | 14.8 | 0.00 | 0.00 | 0.00 | 46 | 1005.6 |
| 20260503173514 | 65 | 17 | 5.2 | 14.8 | 0.00 | 0.00 | 0.00 | 49 | 1005.7 |
| 20260503173032 | 65 | 333 | 6.1 | 14.8 | 0.00 | 0.00 | 0.00 | 46 | 1005.7 |
| 20260503172515 | 65 | 285 | 1.7 | 12.2 | 0.00 | 0.00 | 0.00 | 49 | 1005.8 |
| 20260503172014 | 64 | 343 | 1.7 | 12.2 | 0.00 | 0.00 | 0.00 | 49 | 1005.8 |
| 20260503171534 | 64 | 276 | 4.3 | 12.2 | 0.00 | 0.00 | 0.00 | 47 | 1006.0 |
| 20260503171018 | 63 | 250 | 4.3 | 8.7 | 0.00 | 0.00 | 0.00 | 51 | 1005.9 |
| 20260503170515 | 63 | 294 | 3.5 | 7.8 | 0.00 | 0.00 | 0.00 | 50 | 1005.9 |
| 20260503150516 | 60 | 220 | 4.3 | 9.6 | 0.00 | 0.00 | 0.00 | 51 | 1005.7 |
| 20260503131016 | 55 | 200 | 4.3 | 7.8 | 0.00 | 0.00 | 0.00 | 55 | 1006.2 |
| 20260503130518 | 55 | 208 | 4.3 | 11.3 | 0.00 | 0.00 | 0.00 | 55 | 1006.4 |
| 20260503110516 | 53 | 199 | 5.2 | 10.4 | 0.00 | 0.00 | 0.00 | 57 | 1005.7 |
| 20260503081545 | 55 | 207 | 6.1 | 12.2 | 0.00 | 0.00 | 0.00 | 54 | 1007.1 |
| 20260503081019 | 55 | 227 | 6.1 | 11.3 | 0.00 | 0.00 | 0.00 | 54 | 1007.2 |
| 20260503080516 | 54 | 207 | 5.2 | 12.2 | 0.00 | 0.00 | 0.00 | 54 | 1007.2 |
| 20260503072518 | 54 | 194 | 6.1 | 14.8 | 0.00 | 0.00 | 0.00 | 54 | 1008.1 |
| 20260503072017 | 54 | 227 | 6.1 | 14.8 | 0.00 | 0.00 | 0.00 | 55 | 1008.1 |
| 20260503071554 | 54 | 217 | 4.3 | 10.4 | 0.00 | 0.00 | 0.00 | 56 | 1008.1 |
| 20260503071015 | 54 | 190 | 3.5 | 8.7 | 0.00 | 0.00 | 0.00 | 55 | 1008.2 |
| 20260503070515 | 54 | 203 | 4.3 | 7.8 | 0.00 | 0.00 | 0.00 | 55 | 1008.2 |
| 20260503055013 | 55 | 190 | 2.6 | 6.1 | 0.00 | 0.00 | 0.00 | 55 | 1009.1 |
| 20260503054550 | 56 | 173 | 1.7 | 6.1 | 0.00 | 0.00 | 0.00 | 55 | 1009.1 |
| 20260503054019 | 56 | 184 | 2.6 | 6.1 | 0.00 | 0.00 | 0.00 | 55 | 1009.1 |
| 20260503053515 | 56 | 173 | 2.6 | 5.2 | 0.00 | 0.00 | 0.00 | 55 | 1009.2 |
| 20260503053030 | 56 | 181 | 2.6 | 7.8 | 0.00 | 0.00 | 0.00 | 54 | 1009.2 |
| 20260503052512 | 56 | 182 | 2.6 | 8.7 | 0.00 | 0.00 | 0.00 | 55 | 1009.4 |
| 20260503052016 | 56 | 186 | 3.5 | 8.7 | 0.00 | 0.00 | 0.00 | 55 | 1009.4 |
| 20260503051543 | 56 | 190 | 2.6 | 6.1 | 0.00 | 0.00 | 0.00 | 57 | 1009.4 |
| 20260503051019 | 56 | 192 | 3.5 | 7.0 | 0.00 | 0.00 | 0.00 | 59 | 1009.5 |
| 20260503050516 | 56 | 185 | 4.3 | 7.0 | 0.00 | 0.00 | 0.00 | 58 | 1009.6 |
| 20260503050034 | 56 | 177 | 2.6 | 5.2 | 0.00 | 0.00 | 0.00 | 58 | 1009.5 |
| 20260503045516 | 56 | 186 | 3.5 | 6.1 | 0.00 | 0.00 | 0.00 | 59 | 1009.6 |
| 20260503045016 | 56 | 169 | 2.6 | 6.1 | 0.00 | 0.00 | 0.00 | 58 | 1009.5 |
| 20260503044535 | 56 | 177 | 2.6 | 6.1 | 0.00 | 0.00 | 0.00 | 57 | 1009.7 |
| 20260503044015 | 57 | 192 | 3.5 | 6.1 | 0.00 | 0.00 | 0.00 | 56 | 1010.0 |
| 20260503043513 | 57 | 174 | 3.5 | 6.1 | 0.00 | 0.00 | 0.00 | 55 | 1010.0 |
| 20260503043034 | 57 | 201 | 2.6 | 6.1 | 0.00 | 0.00 | 0.00 | 55 | 1010.0 |
| 20260503042514 | 57 | 199 | 2.6 | 6.1 | 0.00 | 0.00 | 0.00 | 54 | 1010.1 |
| 20260503042014 | 57 | 193 | 2.6 | 6.1 | 0.00 | 0.00 | 0.00 | 54 | 1010.2 |
| 20260503041534 | 57 | 227 | 2.6 | 5.2 | 0.00 | 0.00 | 0.00 | 54 | 1010.2 |
| 20260503041014 | 57 | 232 | 2.6 | 5.2 | 0.00 | 0.00 | 0.00 | 54 | 1010.3 |
| 20260503040518 | 57 | 221 | 1.7 | 6.1 | 0.00 | 0.00 | 0.00 | 53 | 1010.4 |